STARLINK-31343, 59093

Orbit data source: Space-Track

STARLINK-31343, 59093 is a payload satellite owned by SpaceX/Seattle (US) in LEO that was launched on Thu, 29 Feb 2024 UTC via an FALCON 9 launch vehicle from the Air Force Eastern Test Range (AFETR). Payload-class satellites include a variety of spacecraft equipped with specific instruments for various scientific and technological missions. These include communications satellites like Starlink; space stations such as the ISS; scientific satellites like the Hubble; Earth observation satellites from companies like Planet Labs, Umbra, and HawkEye 360; GPS; miniature CubeSats for education and research; and military/defense satellites.

Loading next visibility...
Identifier
59093, 2024-041V
Orbit
LEO
Country
Flag of USUS
Related business
Manufacturer
SpaceX/Seattle
Mission
Operational Commercial Communications
Bus & Motor
STARLINK V2M, Unknown motor
Mass
730 kg wet, ~700 kg dry
Launch date (UTC)
2024-02-29 (2 years ago)
Launch vehicle
FALCON 9
Launch site
Air Force Eastern Test Range (AFETR)
Object type
Payload
Rocket body
Debris
Shape & HBR
Box + 2 Pan, 17.7 m
Radar Cross Section
33.884 m², Large (>1 m²)

Expand to show TLE details & history
Last TLE update: 2 days ago

TLE from 2 days ago
0 STARLINK-31343
1 59093U 24041V   26171.11863597 -.00001700  00000-0 -52252-4 0  9994
2 59093  43.0039  92.4948 0002620 242.3442 117.7144 15.27568526129985
Epoch: 2026-06-20T02:50Z
TLE epoch observation values (Epoch: 2026-06-20T02:50:50.147Z)
Latitude
-0.00003°
Longitude
141.44798°
Altitude
483.696 km
Speed
7.625 km/s
True Right ascension
06h 09m 58s
True Declination
0° 00' 00"
Sunlit
Object was in daylight at epoch
Visualization orbit readout
Latitude
Unknown
Longitude
Unknown
Altitude
Unknown
Speed
Unknown
Apparent Right ascension
Unknown
Apparent Declination
Unknown
Sunlit
N/A
Visualization observer readout
Local Sidereal Time
21:29:46
Azimuth
Unknown
Elevation
Unknown
Doppler factor
Unknown
Orbital elements
Apogee altitude
486.826 km
Perigee altitude
483.23 km
Semi-major axis
6,863.165 km
Eccentricity
0.00026
Inclination
43.0039°
RAAN
92.4948°
Arg. of periapsis
242.3442°
True anomaly
117.74097°
Mean anomaly
117.7144°
Eccentric anomaly
117.72769°
Mean motion
3.8173 °/min
Orbital period
94.31 mins
BSTAR
-0.000052252
Loading maneuver chart data...
Computing Atmospheric mass density...
Loading historical data...
Loading historical data...
Loading historical data...
Loading historical data...
Loading historical data...
Loading historical data...
Loading historical data...

Documentation

Showing up to 5 results
|